FW8253 Weather Reports


Display with metric or nautical units.
time (UTC)temp
F
wind
direction
speed
MPH
gust
MPH
rain 1hr
in
rain 24hr
in
rain mn
in
humidity
%
barometer
mb
20260509203235 78 234 0.0 0.0 0.00 0.00 0.00 77 1012.7
20260509202730 78 197 0.0 0.0 0.00 0.00 0.00 77 1012.8
20260509202227 76 224 0.0 0.0 0.00 0.00 0.00 80 1012.9
20260509201721 75 227 0.0 0.0 0.00 0.00 0.00 81 1013.1
20260509201218 75 190 0.0 0.0 0.00 0.00 0.00 79 1013.1
20260509200714 76 241 0.0 0.0 0.00 0.00 0.00 83 1013.1
20260509200209 75 299 0.0 0.0 0.00 0.00 0.00 77 1013.1
20260509195705 75 158 0.0 0.0 0.00 0.00 0.00 81 1013.1
20260509195201 75 48 0.0 0.0 0.00 0.00 0.00 79 1013.3
20260509194655 76 237 0.0 0.0 0.00 0.00 0.00 78 1013.5
20260509194152 76 233 0.0 0.0 0.00 0.00 0.00 79 1013.5
20260509193648 75 232 0.0 0.0 0.00 0.00 0.00 80 1013.4
20260509193143 76 265 0.0 0.0 0.00 0.00 0.00 77 1013.3
20260509192640 76 218 0.0 0.0 0.00 0.00 0.00 78 1013.6
20260509192136 75 150 0.0 0.0 0.00 0.00 0.00 83 1013.8
20260509191635 75 229 0.0 0.0 0.00 0.00 0.00 82 1013.7
20260509191132 75 108 0.0 0.0 0.00 0.00 0.00 79 1014.0
20260509190629 75 215 0.0 0.0 0.00 0.00 0.00 82 1013.8
20260509190126 74 266 0.0 0.0 0.00 0.00 0.00 81 1013.9
20260509185624 74 241 0.0 0.0 0.00 0.00 0.00 81 1013.9
20260509185120 75 187 0.0 0.0 0.00 0.00 0.00 78 1014.1
20260509184618 75 219 0.0 0.0 0.00 0.00 0.00 81 1013.9
20260509184114 75 246 0.0 0.0 0.00 0.00 0.00 81 1014.0
20260509183610 74 239 0.0 0.0 0.00 0.00 0.00 81 1014.0
20260509183106 74 226 0.0 0.0 0.00 0.00 0.00 81 1013.9
20260509182602 74 225 0.0 0.0 0.00 0.00 0.00 84 1014.0
20260509182059 74 219 0.0 0.0 0.00 0.00 0.00 80 1013.8
20260509181558 75 234 0.0 0.0 0.00 0.00 0.00 79 1014.1
20260509181054 75 275 0.0 0.0 0.00 0.00 0.00 82 1014.2
20260509180550 74 286 0.0 0.0 0.00 0.00 0.00 85 1014.1
20260509180048 74 243 0.0 0.0 0.00 0.00 0.00 83 1013.9
20260509175543 73 44 0.0 0.0 0.00 0.00 0.00 84 1014.2
20260509175040 73 223 0.0 0.0 0.00 0.00 0.00 84 1014.2
20260509174537 73 260 0.0 0.0 0.00 0.00 0.00 87 1013.9
20260509174032 73 234 0.0 0.0 0.00 0.00 0.00 84 1013.9
20260509173526 73 242 0.0 0.0 0.00 0.00 0.00 86 1013.8
20260509173023 73 243 0.0 0.0 0.00 0.00 0.00 85 1013.8
20260509172520 73 224 0.0 0.0 0.00 0.00 0.00 84 1013.8
20260509172016 74 247 0.0 0.0 0.00 0.00 0.00 83 1013.8
20260509171512 74 214 0.0 0.0 0.00 0.00 0.00 83 1014.0
20260509171009 74 248 0.0 0.0 0.00 0.00 0.00 81 1013.9
20260509170504 74 246 0.0 0.0 0.00 0.00 0.00 82 1013.7
20260509170001 73 222 0.0 0.0 0.00 0.00 0.00 83 1013.8
20260509165459 73 247 0.0 0.0 0.00 0.00 0.00 85 1014.0
20260509164955 74 13 0.0 0.0 0.00 0.00 0.00 82 1013.7
20260509164451 73 193 0.0 0.0 0.00 0.00 0.00 84 1013.9
20260509163947 73 221 0.0 0.0 0.00 0.00 0.00 84 1014.0
20260509163445 73 228 0.0 0.0 0.00 0.00 0.00 85 1014.1
20260509162944 73 219 0.0 0.0 0.00 0.00 0.00 85 1014.0
20260509162443 72 234 0.0 0.0 0.00 0.00 0.00 89 1014.2
20260509161938 72 194 0.0 0.0 0.00 0.00 0.00 85 1014.2
20260509161435 72 241 0.0 0.0 0.00 0.00 0.00 89 1014.1
20260509160930 72 253 0.0 0.0 0.00 0.00 0.00 87 1014.2
20260509160426 72 229 0.0 0.0 0.00 0.00 0.00 87 1014.3
20260509155921 72 202 0.0 0.0 0.00 0.00 0.00 87 1014.3
20260509155418 72 272 0.0 0.0 0.00 0.00 0.00 87 1014.7
20260509154915 72 205 0.0 0.0 0.00 0.00 0.00 88 1014.3
20260509154411 72 216 0.0 0.0 0.00 0.00 0.00 88 1014.3
20260509153908 71 224 0.0 0.0 0.00 0.00 0.00 87 1014.2
20260509153405 71 236 0.0 0.0 0.00 0.00 0.00 87 1014.4
20260509152901 71 268 0.0 0.0 0.00 0.00 0.00 87 1014.3
20260509152352 71 219 0.0 0.0 0.00 0.00 0.00 88 1014.4
20260509151849 71 163 0.0 0.0 0.00 0.00 0.00 87 1014.3
20260509151345 71 240 0.0 0.0 0.00 0.00 0.00 87 1014.1
20260509150844 71 223 0.0 0.0 0.00 0.00 0.00 87 1014.5
20260509150342 71 202 0.0 0.0 0.00 0.00 0.00 87 1014.5
20260509145839 71 229 0.0 0.0 0.00 0.00 0.00 87 1014.6
20260509145339 71 236 0.0 0.0 0.00 0.00 0.00 89 1014.6
20260509144835 71 248 0.0 0.0 0.00 0.00 0.00 88 1014.6
20260509144332 71 189 0.0 0.0 0.00 0.00 0.00 86 1014.9
20260509143829 71 229 0.0 0.0 0.00 0.00 0.00 87 1014.9
20260509143327 71 237 0.0 0.0 0.00 0.00 0.00 88 1014.8
20260509142823 70 214 0.0 0.0 0.00 0.00 0.00 89 1014.9
20260509142319 69 207 0.0 0.0 0.00 0.00 0.00 90 1015.0
20260509141815 69 242 0.0 0.0 0.00 0.00 0.00 90 1014.8
20260509141312 69 225 0.0 0.0 0.00 0.00 0.00 90 1014.7
20260509140808 68 198 0.0 0.0 0.00 0.00 0.00 93 1015.3
20260509140306 68 347 0.0 0.0 0.00 0.00 0.00 92 1015.2
20260509135803 68 239 0.0 0.0 0.00 0.00 0.00 92 1015.4
20260509135301 68 235 0.0 0.0 0.00 0.00 0.00 91 1015.2
20260509134758 68 219 0.0 0.0 0.00 0.00 0.00 93 1015.1
20260509134255 68 207 0.0 0.0 0.00 0.00 0.00 92 1015.0
20260509133752 69 236 0.0 0.0 0.00 0.00 0.00 91 1015.0
20260509133248 69 220 0.0 0.0 0.00 0.00 0.00 92 1015.0
20260509132747 69 222 0.0 0.0 0.00 0.00 0.00 91 1015.1
20260509132246 69 256 0.0 0.0 0.00 0.00 0.00 92 1014.7
20260509131742 68 251 0.0 0.0 0.00 0.00 0.00 91 1014.3
20260509131239 68 212 0.0 0.0 0.00 0.00 0.00 93 1014.3
20260509130735 67 199 0.0 0.0 0.00 0.00 0.00 94 1014.3
20260509130230 66 237 0.0 0.0 0.00 0.00 0.00 96 1014.5
20260509125727 65 220 0.0 0.0 0.00 0.00 0.00 97 1014.6
20260509125225 65 201 0.0 0.0 0.00 0.00 0.00 98 1014.8
20260509124721 64 224 0.0 0.0 0.00 0.00 0.00 98 1015.0
20260509124217 64 228 0.0 0.0 0.00 0.00 0.00 98 1014.7
20260509123716 64 215 0.0 0.0 0.00 0.00 0.00 99 1014.9
20260509123213 64 182 0.0 0.0 0.00 0.00 0.00 99 1015.2
20260509122708 63 182 0.0 0.0 0.00 0.00 0.00 99 1015.1
20260509122205 63 181 0.0 0.0 0.00 0.00 0.00 99 1015.1
20260509121702 63 181 0.0 0.0 0.00 0.00 0.00 99 1015.0
20260509121200 62 181 0.0 0.0 0.00 0.00 0.00 99 1015.1
20260509120658 62 181 0.0 0.0 0.00 0.00 0.00 99 1014.9
20260509120155 62 181 0.0 0.0 0.00 0.00 0.00 99 1015.2
20260509115653 62 181 0.0 0.0 0.00 0.00 0.00 99 1015.0
20260509115150 62 181 0.0 0.0 0.00 0.00 0.00 99 1015.0
20260509114648 62 181 0.0 0.0 0.00 0.00 0.00 99 1015.1
20260509114147 61 181 0.0 0.0 0.00 0.00 0.00 99 1015.1
20260509113645 61 181 0.0 0.0 0.00 0.00 0.00 99 1015.1
20260509113141 61 181 0.0 0.0 0.00 0.00 0.00 99 1015.0
20260509112638 61 181 0.0 0.0 0.00 0.00 0.00 99 1015.0
20260509112135 60 181 0.0 0.0 0.00 0.00 0.00 99 1015.2
20260509111632 60 181 0.0 0.0 0.00 0.00 0.00 99 1015.1
20260509111123 60 181 0.0 0.0 0.00 0.00 0.00 99 1015.0
20260509110620 60 181 0.0 0.0 0.00 0.00 0.00 99 1014.7
20260509110118 60 182 0.0 0.0 0.00 0.00 0.00 99 1014.6
20260509105616 60 181 0.0 0.0 0.00 0.00 0.00 99 1014.6
20260509105113 60 182 0.0 0.0 0.00 0.00 0.00 99 1015.0
20260509104610 60 181 0.0 0.0 0.00 0.00 0.00 99 1015.0
20260509104108 60 181 0.0 0.0 0.00 0.00 0.00 99 1015.1
20260509103604 59 181 0.0 0.0 0.00 0.00 0.00 99 1014.8
20260509103102 59 181 0.0 0.0 0.00 0.00 0.00 99 1014.5
20260509102559 59 181 0.0 0.0 0.00 0.00 0.00 99 1014.4
20260509102056 59 181 0.0 0.0 0.00 0.00 0.00 99 1014.5
20260509101552 59 181 0.0 0.0 0.00 0.00 0.00 99 1014.5
20260509101049 59 181 0.0 0.0 0.00 0.00 0.00 99 1014.2
20260509100546 59 181 0.0 0.0 0.00 0.00 0.00 99 1014.0
20260509100044 59 181 0.0 0.0 0.00 0.00 0.00 99 1014.2
20260509095540 59 181 0.0 0.0 0.00 0.00 0.00 99 1014.1
20260509095038 58 181 0.0 0.0 0.00 0.00 0.00 99 1014.2
20260509094534 58 181 0.0 0.0 0.00 0.00 0.00 99 1013.8
20260509094031 58 181 0.0 0.0 0.00 0.00 0.00 99 1013.8
20260509093529 58 181 0.0 0.0 0.00 0.00 0.00 99 1013.8
20260509093027 58 181 0.0 0.0 0.00 0.00 0.00 99 1013.6
20260509092525 58 181 0.0 0.0 0.00 0.00 0.00 99 1013.7
20260509092023 58 181 0.0 0.0 0.00 0.00 0.00 99 1013.8
20260509091520 58 181 0.0 0.0 0.00 0.00 0.00 99 1013.5
20260509091016 58 181 0.0 0.0 0.00 0.00 0.00 99 1013.6
20260509090514 58 181 0.0 0.0 0.00 0.00 0.00 99 1013.8
20260509090012 59 181 0.0 0.0 0.00 0.00 0.00 99 1013.9
20260509085508 59 181 0.0 0.0 0.00 0.00 0.00 99 1013.6
20260509085004 59 181 0.0 0.0 0.00 0.00 0.00 99 1013.6
20260509084501 59 181 0.0 0.0 0.00 0.00 0.00 99 1013.9
20260509083959 59 181 0.0 0.0 0.00 0.00 0.00 99 1013.7
20260509083456 59 181 0.0 0.0 0.00 0.00 0.00 99 1013.8
20260509082952 59 181 0.0 0.0 0.00 0.00 0.00 99 1013.8
20260509082450 59 181 0.0 0.0 0.00 0.00 0.00 99 1014.0
20260509081947 59 181 0.0 0.0 0.00 0.00 0.00 99 1014.0
20260509081444 59 181 0.0 0.0 0.00 0.00 0.00 99 1013.9
20260509080941 59 181 0.0 0.0 0.00 0.00 0.00 99 1013.9
20260509080439 59 181 0.0 0.0 0.00 0.00 0.00 99 1013.8
20260509075937 59 181 0.0 0.0 0.00 0.00 0.00 99 1013.9
20260509075434 59 181 0.0 0.0 0.00 0.00 0.00 99 1013.8
20260509074932 59 181 0.0 0.0 0.00 0.00 0.00 99 1013.9
20260509074429 59 181 0.0 0.0 0.00 0.00 0.00 99 1013.7
20260509073925 60 181 0.0 0.0 0.00 0.00 0.00 99 1013.8
20260509073421 60 181 0.0 0.0 0.00 0.00 0.00 99 1013.8
20260509072918 60 181 0.0 0.0 0.00 0.00 0.00 99 1014.0
20260509072415 60 181 0.0 0.0 0.00 0.00 0.00 99 1014.1
20260509071911 60 181 0.0 0.0 0.00 0.00 0.00 99 1014.3
20260509071409 60 181 0.0 0.0 0.00 0.00 0.00 99 1014.3
20260509070906 60 181 0.0 0.0 0.00 0.00 0.00 99 1014.4
20260509070402 60 181 0.0 0.0 0.00 0.00 0.00 99 1014.6
20260509065858 60 180 0.0 0.0 0.00 0.00 0.00 99 1014.6
20260509065355 60 181 0.0 0.0 0.00 0.00 0.00 99 1014.8
20260509064851 60 181 0.0 0.0 0.00 0.00 0.00 99 1014.6
20260509064348 61 180 0.0 0.0 0.00 0.00 0.00 99 1014.4
20260509063846 61 180 0.0 0.0 0.00 0.00 0.00 99 1014.6
20260509063342 61 180 0.0 0.0 0.00 0.00 0.00 99 1014.8
20260509062839 61 181 0.0 0.0 0.00 0.00 0.00 98 1015.0
20260509062336 61 181 0.0 0.0 0.00 0.00 0.00 98 1014.9
20260509061833 61 181 0.0 0.0 0.00 0.00 0.00 98 1015.0
20260509061332 62 181 0.0 0.0 0.00 0.00 0.00 98 1014.9
20260509060828 62 180 0.0 0.0 0.00 0.00 0.00 98 1014.6
20260509060325 62 180 0.0 0.0 0.00 0.00 0.00 98 1015.2
20260509055820 62 180 0.0 0.0 0.00 0.00 0.00 97 1015.1
20260509055316 62 180 0.0 0.0 0.00 0.00 0.00 97 1015.5
20260509054813 62 180 0.0 0.0 0.00 0.00 0.00 97 1015.5
20260509054310 62 177 0.0 0.0 0.00 0.00 0.00 97 1015.2
20260509053808 62 177 0.0 0.0 0.00 0.00 0.00 97 1014.9
20260509053304 62 176 0.0 0.0 0.00 0.00 0.00 97 1014.6
20260509052802 62 176 0.0 0.0 0.00 0.00 0.00 97 1014.9
20260509052300 62 176 0.0 0.0 0.00 0.00 0.00 97 1015.2
20260509051758 62 176 0.0 0.0 0.00 0.00 0.00 97 1015.3
20260509051256 62 176 0.0 0.0 0.00 0.00 0.00 97 1015.6
20260509050752 62 176 0.0 0.0 0.00 0.00 0.00 97 1015.6
20260509050249 62 158 0.0 0.0 0.00 0.00 0.00 97 1016.0
20260509045746 62 177 0.0 0.0 0.00 0.00 0.00 97 1016.0
20260509045243 62 177 0.0 0.0 0.00 0.00 0.00 97 1016.1
20260509044740 62 177 0.0 0.0 0.00 0.00 0.00 97 1015.8
20260509044238 61 177 0.0 0.0 0.00 0.00 0.00 97 1015.8
20260509043734 61 177 0.0 0.0 0.00 0.00 0.00 97 1015.6
20260509043230 61 177 0.0 0.0 0.00 0.00 0.00 97 1015.8
20260509042726 61 177 0.0 0.0 0.00 0.00 0.00 97 1016.0
20260509042222 61 176 0.0 0.0 0.00 0.00 0.00 97 1016.4
20260509041719 61 177 0.0 0.0 0.00 0.00 0.00 97 1016.6
20260509041217 61 176 0.0 0.0 0.00 0.00 0.00 97 1016.4
20260509040715 61 176 0.0 0.0 0.00 0.00 0.00 97 1016.4
20260509040212 61 176 0.0 0.0 0.00 0.00 0.00 97 1016.3
20260509035708 61 176 0.0 0.0 0.00 0.00 0.00 97 1016.4
20260509035205 61 176 0.0 0.0 0.00 0.00 0.00 97 1016.4
20260509034702 61 176 0.0 0.0 0.00 0.00 0.00 96 1016.4
20260509034200 61 176 0.0 0.0 0.00 0.00 0.00 96 1016.4
20260509033657 61 176 0.0 0.0 0.00 0.00 0.00 96 1016.2
20260509033153 61 176 0.0 0.0 0.00 0.00 0.00 96 1016.5
20260509032651 61 176 0.0 0.0 0.00 0.00 0.00 96 1016.5
20260509032147 61 176 0.0 0.0 0.00 0.00 0.00 96 1016.5
20260509031645 61 176 0.0 0.0 0.00 0.00 0.00 96 1016.2
20260509031142 61 176 0.0 0.0 0.00 0.00 0.00 97 1016.3
20260509030641 62 176 0.0 0.0 0.00 0.00 0.00 96 1016.1
20260509030138 62 176 0.0 0.0 0.00 0.00 0.00 96 1016.2
20260509025633 62 176 0.0 0.0 0.00 0.00 0.00 96 1015.9
20260509025129 62 176 0.0 0.0 0.00 0.00 0.00 96 1016.2
20260509024625 62 176 0.0 0.0 0.00 0.00 0.00 96 1016.1
20260509024121 62 176 0.0 0.0 0.00 0.00 0.00 96 1016.1
20260509023620 62 176 0.0 0.0 0.00 0.00 0.00 96 1016.3
20260509023116 62 176 0.0 0.0 0.00 0.00 0.00 96 1016.6
20260509022612 62 176 0.0 0.0 0.00 0.00 0.00 96 1016.5
20260509022110 63 176 0.0 0.0 0.00 0.00 0.00 96 1016.4
20260509021607 63 176 0.0 0.0 0.00 0.00 0.00 96 1016.5
20260509021104 63 177 0.0 0.0 0.00 0.00 0.00 96 1016.5
20260509020603 63 176 0.0 0.0 0.00 0.00 0.00 96 1016.4
20260509020058 63 176 0.0 0.0 0.00 0.00 0.00 96 1016.6
20260509015558 63 177 0.0 0.0 0.00 0.00 0.00 96 1016.6
20260509015055 64 176 0.0 0.0 0.00 0.00 0.00 96 1016.3
20260509014551 64 177 0.0 0.0 0.00 0.00 0.00 96 1016.5
20260509014048 64 177 0.0 0.0 0.00 0.00 0.00 96 1016.4
20260509013545 64 176 0.0 0.0 0.00 0.00 0.00 96 1016.2
20260509013040 64 176 0.0 0.0 0.00 0.00 0.00 96 1016.2
20260509012537 64 177 0.0 0.0 0.00 0.00 0.00 95 1016.7
20260509012034 64 177 0.0 0.0 0.00 0.00 0.00 95 1016.5
20260509011532 64 176 0.0 0.0 0.00 0.00 0.00 95 1016.2
20260509011029 64 177 0.0 0.0 0.00 0.00 0.00 95 1016.3
20260509010527 64 176 0.0 0.0 0.00 0.00 0.00 94 1016.4
20260509010023 65 176 0.0 0.0 0.00 0.00 0.00 94 1016.1
20260509005521 65 176 0.0 0.0 0.00 0.00 0.00 94 1016.1
20260509005021 65 176 0.0 0.0 0.00 0.00 0.00 94 1016.1
20260509004518 65 176 0.0 0.0 0.00 0.00 0.00 94 1016.2
20260509004015 65 176 0.0 0.0 0.00 0.00 0.00 93 1016.1
20260509003514 65 193 0.0 0.0 0.00 0.00 0.00 93 1016.1
20260509003010 65 192 0.0 0.0 0.00 0.00 0.00 92 1016.0
20260509002508 66 192 0.0 0.0 0.00 0.00 0.00 92 1016.1
20260509002005 66 192 0.0 0.0 0.00 0.00 0.00 91 1015.9
20260509001502 66 192 0.0 0.0 0.00 0.00 0.00 90 1015.9
20260509000958 66 197 0.0 0.0 0.00 0.00 0.00 90 1015.7
20260509000457 67 209 0.0 0.0 0.00 0.00 0.00 89 1015.7
20260508235952 67 209 0.0 0.0 0.00 0.00 0.00 88 1015.6
20260508235450 67 210 0.0 0.0 0.00 0.00 0.00 88 1015.3
20260508234946 67 209 0.0 0.0 0.00 0.00 0.00 87 1015.6
20260508234443 67 168 0.0 0.0 0.00 0.00 0.00 87 1015.4
20260508233941 67 235 0.0 0.0 0.00 0.00 0.00 85 1015.5
20260508233440 67 235 0.0 0.0 0.00 0.00 0.00 86 1015.5
20260508232936 68 237 0.0 0.0 0.00 0.00 0.00 86 1015.5
20260508232433 68 243 0.0 0.0 0.00 0.00 0.00 83 1015.5
20260508231931 68 238 0.0 0.0 0.00 0.00 0.00 82 1015.5
20260508231428 68 238 0.0 0.0 0.00 0.00 0.00 83 1015.4
20260508230925 69 238 0.0 0.0 0.00 0.00 0.00 81 1015.3
20260508230421 69 238 0.0 0.0 0.00 0.00 0.00 83 1015.4
20260508225918 69 238 0.0 0.0 0.00 0.00 0.00 82 1015.3
20260508225415 69 238 0.0 0.0 0.00 0.00 0.00 77 1015.2
20260508224913 69 238 0.0 0.0 0.00 0.00 0.00 79 1015.4
20260508224410 69 238 0.0 0.0 0.00 0.00 0.00 83 1015.5
20260508223907 70 238 0.0 0.0 0.00 0.00 0.00 81 1015.4
20260508223405 70 238 0.0 0.0 0.00 0.00 0.00 76 1015.5
20260508222902 70 238 0.0 0.0 0.00 0.00 0.00 82 1015.5
20260508222359 70 238 0.0 0.0 0.00 0.00 0.00 79 1015.6
20260508221856 71 238 0.0 0.0 0.00 0.00 0.00 78 1015.6
20260508221351 71 238 0.0 0.0 0.00 0.00 0.00 77 1015.6
20260508220848 71 238 0.0 0.0 0.00 0.00 0.00 78 1015.7
20260508220344 71 238 0.0 0.0 0.00 0.00 0.00 71 1015.7
20260508215841 71 238 0.0 0.0 0.00 0.00 0.00 74 1015.5
20260508215338 71 238 0.0 0.0 0.00 0.00 0.00 75 1015.6
20260508214835 71 238 0.0 0.0 0.00 0.00 0.00 76 1015.5
20260508214332 71 238 0.0 0.0 0.00 0.00 0.00 73 1015.7
20260508213829 71 238 0.0 0.0 0.00 0.00 0.00 73 1015.9
20260508213325 71 238 0.0 0.0 0.00 0.00 0.00 73 1015.7
20260508212821 71 238 0.0 0.0 0.00 0.00 0.00 73 1015.6
20260508212318 72 238 0.0 0.0 0.00 0.00 0.00 73 1015.6
20260508211814 72 238 0.0 0.0 0.00 0.00 0.00 72 1015.5
20260508211309 73 237 0.0 0.0 0.00 0.00 0.00 69 1015.5
20260508210807 73 237 0.0 0.0 0.00 0.00 0.00 67 1015.5
20260508210304 73 237 0.0 0.0 0.00 0.00 0.00 65 1015.4
20260508205801 73 240 0.0 0.0 0.00 0.00 0.00 62 1015.6
20260508205257 73 229 0.0 0.0 0.00 0.00 0.00 60 1015.3
20260508204753 73 226 0.0 0.0 0.00 0.00 0.00 64 1015.5
20260508204250 74 239 0.0 0.0 0.00 0.00 0.00 64 1015.6
20260508203746 74 221 0.0 0.0 0.00 0.00 0.00 63 1015.9